Location: Marysville Observatory
(48.1092°N, 122.1645°W)
Time: 17:24:10
(UTC-07:00)

ISS - Visible Passes

Search period start: 22 March 2017 00:00
Search period end: 01 April 2017 00:00
Orbit: 399 x 409 km, 51.6° (Epoch: 23 March)

Date Brightness Start Highest point End Pass type
(mag) Time Alt. Az. Time Alt. Az. Time Alt. Az.
22 Mar -2.3 05:03:05 27° SE 05:03:05 27° SE 05:04:48 10° SE visible
23 Mar -1.8 05:46:18 15° SSW 05:46:18 15° SSW 05:47:34 10° S visible
26 Mar -1.2 21:23:48 10° SSW 21:23:54 11° SSW 21:23:54 11° SSW visible
27 Mar -2.1 20:32:17 10° S 20:34:25 16° SE 20:34:47 16° SE visible
27 Mar -0.9 22:07:13 10° WSW 22:07:31 12° WSW 22:07:31 12° WSW visible
28 Mar -3.7 21:14:58 10° SW 21:18:06 52° SSE 21:18:06 52° SSE visible
29 Mar -3.0 20:22:54 10° SSW 20:25:50 31° SE 20:28:28 12° E visible
29 Mar -2.5 21:58:56 10° W 22:01:08 38° W 22:01:08 38° W visible
30 Mar -3.9 21:06:28 10° WSW 21:09:44 88° NNW 21:11:16 29° ENE visible
30 Mar -0.8 22:43:16 10° WNW 22:43:57 15° WNW 22:43:57 15° WNW visible
31 Mar -3.8 20:14:07 10° SW 20:17:20 61° SSE 20:20:34 10° ENE visible
31 Mar -3.0 21:50:43 10° W 21:53:54 47° N 21:53:54 47° N visible
